User: anonymous   Login
Location: Unspecified
(0.0000°N, 0.0000°E)
Time: 23:04:34
(UTC+00:00)
Language:

S6 MICHAEL FREILICH - Orbit

View from above orbital plane
View from above orbital plane
View from above satellite
View from above satellite

Ground track
Ground track

The orbit is defined by the following mean orbital elements,

1 46984U          26145.52153442 +.00000000 +00000-0 +11462-3 0 00005
2 46984  66.0391 182.1298 0007936 270.2737  89.7369 12.80929185    09
Epoch (UTC): 25 May 2026 12:31:00
Eccentricity: 0.0007936
inclination: 66.0391°
perigee height: 1332 km
apogee height: 1344 km
right ascension of ascending node: 182.1298°
argument of perigee: 270.2737°
revolutions per day: 12.80929185
mean anomaly at epoch: 89.7369°

The dashed part of the orbit path shows where the satellite is in the earth's shadow,  

DLR